Location: Dana
(41.8364°N, 106.7042°W)
Time: 01:30:40
(UTC+00:00)

Transit 4A - Pass Details

Date: 13 May 2026
Orbit: 860 x 980 km, 66.8° (Epoch: 6 June)

Event Time Altitude Azimuth Distance (km) Brightness Sun altitude
Rises 13:33:18 0° 150° (SSE) 3,525 11.2 17.7°
Reaches altitude 10° 13:37:35 10° 121° (ESE) 2,621 11.2 18.5°
Maximum altitude 13:39:45 12° 100° (E) 2,495 11.9 18.9°
Drops below altitude 10° 13:41:56 10° 79° (E) 2,657 12.7 19.3°
Sets 13:46:20 0° 50° (NE) 3,637 12.0 20.1°
